Regional Weather Roundup
Issued by NWS Charleston, SC

Current Version | Previous Version | Graphics & Text | Print | Product List | Glossary On
Versions: 1 2 3 4 5 6 7 8 9 10 11 12 13 14 15 16 17 18 19 20 21 22 23 24 25 26 27 28 29 30 31 32 33 34 35 36 37 38 39 40 41 42 43 44 45 46 47 48 49 50
000 ASUS42 KCHS 171210 RWRCHS REGIONAL WEATHER ROUNDUP NATIONAL WEATHER SERVICE CHARLESTON SC 800 AM EDT WED SEP 17 2014 NOTE: "FAIR" INDICATES FEW OR NO CLOUDS BELOW 12,000 FEET WITH NO SIGNIFICANT WEATHER AND/OR OBSTRUCTIONS TO VISIBILITY. NOT ALL STATIONS ARE QUALITY CONTROLLED BY THE NATIONAL WEATHER SERVICE. USE DATA WITH CAUTION...ESPECIALLY DEWPOINT OBSERVATIONS. SCZ027-030-031-034>040-042>050-171300- ...SOUTH CAROLINA... CITY SKY/WX TMP DP RH WIND PRES REMARKS N CHARLESTON MOSUNNY 73 69 87 CALM 29.92F 6HR MIN TEMP: 71; 6HR MAX TEMP: 73; WATERFRONT PRK N/A 73 N/A N/A E5 N/A FORT JOHNSON NOT AVBL MOUNT PLEASANT FAIR 70 70 100 CALM 29.92S FOG JOHNS ISLAND MOSUNNY 72 72 100 CALM 29.93S PINOPOLIS N/A 72 70 94 CALM 29.83F MONCKS CORNER N/A 70 70 100 CALM 29.92R FOG SUMMERVILLE FAIR 70 70 100 CALM 29.93S BEAUFORT MCAS CLOUDY 74 71 91 NW5 29.92S 6HR MIN TEMP: 73; 6HR MAX TEMP: 76; BEAUFORT ARPT CLOUDY 73 73 100 NE8 29.92S HILTON HEAD IS PTSUNNY 75 73 94 NE6 29.93S GEORGETOWN NOT AVBL WALTERBORO CLOUDY 70 N/A N/A E3 29.93S ORANGEBURG PTCLDY 71 68 90 CALM 29.94R 6HR MIN TEMP: 70; 6HR MAX TEMP: 72; 6HR PCP: 0.06; BARNWELL CLOUDY 72 70 94 SE6 29.94R AIKEN FAIR 68 68 100 CALM 29.99R MANNING FAIR 68 N/A N/A CALM 29.92S KINGSTREE NOT AVBL COLUMBIA MOCLDY 69 65 86 N5 29.94R 6HR MIN TEMP: 69; 6HR MAX TEMP: 74; 6HR PCP: TRACE; SUMTER MOSUNNY 67 64 89 N5 29.93R 6HR MIN TEMP: 66; 6HR MAX TEMP: 71; 6HR PCP: 0.03; FLORENCE MOSUNNY 67 64 90 N7 29.93R 6HR MIN TEMP: 66; 6HR MAX TEMP: 71; 6HR PCP: 0.06; MYRTLE BEACH MOSUNNY 70 66 88 N8 29.93R N MYRTLE BEACH MOSUNNY 68 65 90 NE8 29.94R 6HR MIN TEMP: 67; 6HR MAX TEMP: 74; 6HR PCP: TRACE; $$ GAZ063-065-086>088-099>101-113>116-118-119-134-136>141-150-171300- ...GEORGIA... CITY SKY/WX TMP DP RH WIND PRES REMARKS SAVANNAH ARPT PTCLDY 71 68 90 CALM 29.93S 6HR MIN TEMP: 69; 6HR MAX TEMP: 71; HUNTER AAF CLEAR 70 70 100 NW5 29.91S 6HR MIN TEMP: 68; 6HR MAX TEMP: 70; FORT STEWART CLEAR 69 67 94 CALM 29.92R 6HR MIN TEMP: 68; 6HR MAX TEMP: 72; STATESBORO NOT AVBL SYLVANIA CLOUDY 71 71 99 CALM 29.94S FOG CLAXTON FOG N/A N/A N/A CALM 29.94R VSB 1/2 THOMSON CLOUDY 70 70 100 CALM 29.99S AUGUSTA-BUSH MOCLDY 68 66 93 CALM 29.95R 6HR MIN TEMP: 67; 6HR MAX TEMP: 73; AUGUSTA-DANIEL CLOUDY 71 69 93 CALM 29.96R SWAINSBORO FAIR 70 70 100 CALM 29.95S VIDALIA CLEAR 70 70 100 CALM 29.95R ALMA CLEAR 70 69 97 NW5 29.94R FOG 6HR MIN TEMP: 69; 6HR MAX TEMP: 71; WAYCROSS MOCLDY 74 74 100 CALM 29.95R JESUP FAIR 70 68 94 CALM 29.94R BRUNSWICK MOCLDY 72 68 88 CALM 29.93S SAINT SIMONS PTCLDY 72 69 90 NW5 29.92R 6HR MIN TEMP: 72; 6HR MAX TEMP: 74; $$ SCZ027-028-034-036>038-045-046-048>050-GAZ119-141-171300- ...LAKE AND SUPPLEMENTAL COASTAL OBSERVATIONS... STATION/POSITION TIME TEMP WIND PRES WAVE SWELL AIR SEA DIR/SP/G HT/PER HT/PER/DIR (UTC) (F) (DEG/KT/KT) (MB) (FT/S) (FT/S/D) UPR LAKE MARION NOT AVBL WINYAH BAY 1100 70 240/ 1 1012.0S LAKE MURRAY 1100 68 20/ 2/ 3 1013.5R ACE BASIN NERRS 1100 71 40/ 1 1013.0S FORT PULASKI 1200 73 350/ 4/ 5 1013.4R SAPELO ISLAND 1100 73 350/ 5 1013.0S $$ ANZ835-935-AMZ111-154-330-350-352-354-374-450-454-472-171300- ...C-MAN AND BUOY OBSERVATIONS... STATION/POSITION TIME TEMP WIND PRES WAVE SWELL AIR SEA DIR/SP/G HT/PER HT/PER/DIR (UTC) (F) (DEG/KT/KT) (MB) (FT/S) (FT/S/D) FOLLY BEACH CMAN 1200 74 70/ 4/ 5 1013.7S BUOY 41004 1200 79 83 70/ 6/ 10 1012.4S 3/16 2/16 BUOY 41008 1200 78 84 10/ 12/ 14 1012.9R 2/13 2/100/13 5E ST. MARYS GA 1200 83 N/A 2/13 2/110/13 FRYING PAN BUOY NOT AVBL BUOY 41025 1200 74 360/ 14/ 27 1013.0S 3/15 3/120/15 CAPE LOOKOUT NC 1200 76 90/ 10/ 11 1013.0S BUOY 41002 1142 76 82 180/ 6/ 8 1012.4F 7/14 7/100/14 BUOY 41010 1200 78 85 200/ 10/ 14 1012.9S 3/11 2/120/11 BUOY 41012 NOT AVBL ST AUGUSTINE FL 1200 73 280/ 4/ 5 1014.0R CAPERS NEARSHORE 1100 75 70/ 8/ 12 N/A FRIPP NEARSHORE NOT AVBL $$

USA.gov is the U.S. government's official web portal to all federal, state and local government web resources and services.